| time (UTC) | temp C | wind direction | speed KPH | gust KPH | rain 1hr cm | rain 24hr cm | rain mn cm | humidity % | barometer mb |
| 20260504150504 | 13 | 304 | 16.1 | 20.9 | 0.00 | 0.71 | 0.00 | 50 | 1013.1 |
| 20260504141004 | 14 | 309 | 8.0 | 20.9 | 0.00 | 0.94 | 0.71 | 50 | 1012.1 |
| 20260504130504 | 15 | 311 | 16.1 | 25.7 | 0.00 | 1.88 | 0.71 | 50 | 1012.1 |
| 20260504110503 | 15 | 311 | 14.5 | 29.0 | 0.00 | 2.62 | 0.71 | 50 | 1010.1 |
| 20260504100504 | 16 | 312 | 14.5 | 33.8 | 0.00 | 2.62 | 0.71 | 50 | 1008.1 |
| 20260504082004 | 18 | 324 | 32.2 | 49.9 | 0.00 | 2.84 | 0.71 | 50 | 1005.1 |
| 20260504081504 | 18 | 320 | 30.6 | 46.7 | 0.00 | 2.84 | 0.71 | 50 | 1004.1 |
| 20260504081005 | 18 | 323 | 29.0 | 53.1 | 0.00 | 2.84 | 0.71 | 50 | 1004.1 |
| 20260504050504 | 23 | 323 | 17.7 | 25.7 | 0.00 | 3.05 | 0.71 | 50 | 999.1 |
| 20260504050005 | 23 | 323 | 17.7 | 24.1 | 0.00 | 3.05 | 0.71 | 50 | 999.1 |
| 20260504045504 | 24 | 318 | 16.1 | 32.2 | 0.00 | 3.05 | 0.71 | 50 | 999.1 |
| 20260504045004 | 24 | 322 | 17.7 | 32.2 | 0.00 | 3.05 | 0.71 | 50 | 1000.1 |
| 20260504044504 | 24 | 324 | 17.7 | 37.0 | 0.00 | 3.05 | 0.71 | 50 | 1000.1 |
| 20260504044003 | 25 | 319 | 19.3 | 37.0 | 0.00 | 3.05 | 0.71 | 50 | 1000.1 |
| 20260504043005 | 25 | 321 | 22.5 | 29.0 | 0.00 | 3.05 | 0.71 | 50 | 1000.1 |
| 20260504042504 | 25 | 318 | 9.7 | 27.4 | 0.00 | 3.05 | 0.71 | 50 | 1000.1 |
| 20260504041504 | 25 | 325 | 16.1 | 41.8 | 0.00 | 3.05 | 0.71 | 50 | 999.1 |
| 20260504041004 | 24 | 322 | 25.7 | 41.8 | 0.00 | 3.05 | 0.71 | 50 | 999.1 |
| 20260504040004 | 25 | 312 | 16.1 | 38.6 | 0.00 | 3.05 | 0.71 | 50 | 1000.1 |
| 20260504035503 | 25 | 306 | 19.3 | 38.6 | 0.00 | 3.05 | 0.71 | 50 | 1000.1 |
| 20260504035004 | 25 | 301 | 17.7 | 43.5 | 0.00 | 3.05 | 0.71 | 50 | 1001.1 |
| 20260504034503 | 25 | 311 | 30.6 | 43.5 | 0.00 | 3.05 | 0.71 | 50 | 1001.1 |
| 20260504033504 | 25 | 325 | 14.5 | 43.5 | 0.00 | 3.05 | 0.71 | 50 | 999.1 |
| 20260504032503 | 25 | 300 | 25.7 | 30.6 | 0.00 | 3.05 | 0.71 | 50 | 999.1 |
| 20260504032004 | 25 | 302 | 11.3 | 37.0 | 0.00 | 3.05 | 0.71 | 50 | 1000.1 |
| 20260504031505 | 25 | 301 | 17.7 | 37.0 | 0.00 | 3.05 | 0.71 | 50 | 1000.1 |
| 20260504031004 | 25 | 309 | 24.1 | 40.2 | 0.00 | 3.05 | 0.71 | 50 | 1000.1 |
| 20260504030504 | 26 | 309 | 20.9 | 40.2 | 0.00 | 3.05 | 0.71 | 50 | 1001.1 |
| 20260504025504 | 26 | 308 | 20.9 | 43.5 | 0.00 | 3.05 | 0.71 | 50 | 1001.1 |
| 20260504025005 | 26 | 306 | 25.7 | 43.5 | 0.00 | 3.05 | 0.71 | 50 | 1001.1 |
| 20260504024504 | 26 | 309 | 20.9 | 35.4 | 0.00 | 3.05 | 0.71 | 50 | 1001.1 |
| 20260504024004 | 26 | 314 | 17.7 | 35.4 | 0.00 | 3.05 | 0.71 | 50 | 1001.1 |
| 20260504023503 | 25 | 313 | 17.7 | 35.4 | 0.00 | 3.05 | 0.71 | 50 | 1000.1 |
| 20260504023004 | 26 | 311 | 20.9 | 32.2 | 0.00 | 3.05 | 0.71 | 50 | 1000.1 |
| 20260504022504 | 26 | 310 | 20.9 | 27.4 | 0.00 | 3.05 | 0.71 | 50 | 1000.1 |
| 20260504022003 | 26 | 311 | 14.5 | 27.4 | 0.00 | 3.05 | 0.71 | 50 | 1000.1 |
| 20260504021504 | 26 | 308 | 14.5 | 32.2 | 0.00 | 3.05 | 0.71 | 50 | 1000.1 |
| 20260504021004 | 26 | 305 | 19.3 | 32.2 | 0.00 | 3.05 | 0.71 | 50 | 1000.1 |
| 20260504020503 | 26 | 308 | 16.1 | 20.9 | 0.00 | 3.05 | 0.71 | 50 | 1000.1 |
| 20260504020004 | 26 | 311 | 11.3 | 30.6 | 0.00 | 3.05 | 0.71 | 50 | 1000.1 |
| 20260504015504 | 26 | 303 | 24.1 | 30.6 | 0.00 | 3.05 | 0.71 | 50 | 1000.1 |
| 20260504015004 | 26 | 302 | 17.7 | 30.6 | 0.00 | 3.05 | 0.71 | 50 | 1000.1 |
| 20260504014503 | 26 | 306 | 19.3 | 30.6 | 0.00 | 3.05 | 0.71 | 50 | 1000.1 |
| 20260504014004 | 26 | 305 | 17.7 | 20.9 | 0.00 | 3.05 | 0.71 | 50 | 1000.1 |
| 20260504013504 | 26 | 310 | 16.1 | 20.9 | 0.00 | 3.05 | 0.71 | 50 | 1000.1 |
| 20260504013003 | 26 | 309 | 11.3 | 20.9 | 0.00 | 3.05 | 0.71 | 50 | 1000.1 |
| 20260504012503 | 26 | 304 | 16.1 | 20.9 | 0.00 | 3.05 | 0.71 | 50 | 1000.1 |
| 20260504011504 | 25 | 305 | 11.3 | 20.9 | 0.00 | 3.05 | 0.71 | 50 | 1000.1 |
| 20260504010503 | 24 | 313 | 4.8 | 20.9 | 0.00 | 3.05 | 0.71 | 50 | 1000.1 |
| 20260504005503 | 24 | 306 | 14.5 | 24.1 | 0.00 | 3.05 | 0.71 | 50 | 1000.1 |
| 20260504005005 | 24 | 302 | 16.1 | 24.1 | 0.00 | 3.05 | 0.71 | 50 | 1001.1 |
| 20260504004504 | 23 | 307 | 12.9 | 19.3 | 0.00 | 3.05 | 0.71 | 50 | 1001.1 |
| 20260504004003 | 23 | 311 | 9.7 | 19.3 | 0.00 | 3.05 | 0.71 | 50 | 1001.1 |
| 20260504003504 | 22 | 309 | 14.5 | 19.3 | 0.00 | 3.05 | 0.71 | 50 | 1002.1 |
| 20260504003003 | 22 | 316 | 14.5 | 19.3 | 0.00 | 3.05 | 0.71 | 50 | 1002.1 |
| 20260504002503 | 22 | 326 | 6.4 | 12.9 | 0.00 | 3.05 | 0.71 | 50 | 1002.1 |
| 20260504002004 | 21 | 314 | 9.7 | 12.9 | 0.00 | 3.05 | 0.71 | 50 | 1001.1 |
| 20260504001504 | 21 | 299 | 3.2 | 9.7 | 0.00 | 3.05 | 0.71 | 50 | 1001.1 |
| 20260504001003 | 21 | 292 | 9.7 | 9.7 | 0.00 | 3.05 | 0.71 | 50 | 1001.1 |
| 20260504000504 | 21 | 277 | 4.8 | 6.4 | 0.00 | 3.05 | 0.71 | 50 | 1002.1 |
| 20260504000004 | 21 | 230 | 1.6 | 6.4 | 0.00 | 3.05 | 0.71 | 50 | 1002.1 |
| 20260503235504 | 21 | 174 | 1.6 | 6.4 | 0.00 | 3.05 | 0.71 | 50 | 1002.1 |
| 20260503235004 | 21 | 167 | 0.0 | 4.8 | 0.00 | 3.05 | 0.71 | 50 | 1001.1 |
| 20260503234505 | 20 | 167 | 1.6 | 4.8 | 0.00 | 3.05 | 0.71 | 50 | 1001.1 |
| 20260503234004 | 20 | 308 | 0.0 | 6.4 | 0.00 | 3.05 | 0.71 | 50 | 1001.1 |
| 20260503233504 | 20 | 283 | 1.6 | 6.4 | 0.00 | 3.05 | 0.71 | 50 | 1002.1 |
| 20260503233004 | 20 | 260 | 0.0 | 6.4 | 0.00 | 3.05 | 0.71 | 50 | 1002.1 |
| 20260503232004 | 20 | 248 | 1.6 | 6.4 | 0.00 | 3.05 | 0.71 | 50 | 1001.1 |
| 20260503230505 | 19 | 200 | 3.2 | 4.8 | 0.00 | 3.05 | 0.71 | 50 | 1002.1 |
| 20260503230004 | 19 | 197 | 1.6 | 8.0 | 0.00 | 3.05 | 0.71 | 50 | 1002.1 |
| 20260503225504 | 18 | 206 | 1.6 | 8.0 | 0.00 | 3.05 | 0.71 | 50 | 1002.1 |
| 20260503225004 | 18 | 201 | 3.2 | 9.7 | 0.00 | 3.05 | 0.71 | 50 | 1000.1 |
| 20260503224504 | 18 | 203 | 6.4 | 11.3 | 0.00 | 3.05 | 0.71 | 50 | 1000.1 |
| 20260503223504 | 18 | 257 | 6.4 | 11.3 | 0.00 | 3.05 | 0.71 | 50 | 1000.1 |
| 20260503223004 | 18 | 261 | 4.8 | 12.9 | 0.00 | 3.05 | 0.71 | 50 | 1000.1 |
| 20260503222504 | 18 | 272 | 4.8 | 12.9 | 0.00 | 3.05 | 0.71 | 50 | 1000.1 |
| 20260503221504 | 18 | 208 | 1.6 | 6.4 | 0.10 | 3.05 | 0.71 | 50 | 1000.1 |
| 20260503221004 | 18 | 206 | 3.2 | 6.4 | 0.10 | 3.05 | 0.71 | 50 | 1000.1 |
| 20260503220503 | 18 | 273 | 0.0 | 14.5 | 0.10 | 3.05 | 0.71 | 50 | 999.1 |
| 20260503220003 | 18 | 284 | 3.2 | 16.1 | 0.10 | 3.05 | 0.71 | 50 | 999.1 |
| 20260503215504 | 18 | 288 | 9.7 | 16.1 | 0.10 | 3.05 | 0.71 | 50 | 999.1 |
| 20260503214504 | 18 | 298 | 8.0 | 12.9 | 0.10 | 3.05 | 0.71 | 50 | 1000.1 |
| 20260503214004 | 18 | 302 | 6.4 | 12.9 | 0.20 | 3.05 | 0.71 | 50 | 1000.1 |
| 20260503213504 | 18 | 301 | 3.2 | 12.9 | 0.20 | 3.05 | 0.71 | 50 | 1000.1 |
| 20260503212504 | 18 | 309 | 9.7 | 16.1 | 0.20 | 3.05 | 0.71 | 50 | 1000.1 |
| 20260503212004 | 18 | 303 | 9.7 | 24.1 | 0.10 | 2.95 | 0.61 | 50 | 999.1 |
| 20260503211505 | 18 | 303 | 12.9 | 24.1 | 0.10 | 2.95 | 0.61 | 50 | 999.1 |
| 20260503211004 | 18 | 303 | 14.5 | 24.1 | 0.10 | 2.95 | 0.61 | 50 | 999.1 |
| 20260503210504 | 18 | 301 | 17.7 | 27.4 | 0.10 | 2.95 | 0.61 | 50 | 999.1 |
| 20260503210005 | 18 | 298 | 16.1 | 27.4 | 0.10 | 2.95 | 0.61 | 50 | 999.1 |
| 20260503205504 | 18 | 304 | 19.3 | 33.8 | 0.10 | 2.95 | 0.61 | 50 | 999.1 |
| 20260503205004 | 18 | 306 | 19.3 | 33.8 | 0.10 | 2.95 | 0.61 | 50 | 999.1 |
| 20260503204504 | 19 | 297 | 17.7 | 20.9 | 0.00 | 2.84 | 0.51 | 50 | 999.1 |
| 20260503204004 | 19 | 305 | 11.3 | 29.0 | 0.00 | 2.84 | 0.51 | 50 | 999.1 |
| 20260503203504 | 19 | 310 | 22.5 | 29.0 | 0.00 | 2.84 | 0.51 | 50 | 999.1 |
| 20260503203004 | 19 | 303 | 19.3 | 24.1 | 0.00 | 2.84 | 0.51 | 50 | 999.1 |
| 20260503202503 | 20 | 299 | 17.7 | 20.9 | 0.00 | 2.84 | 0.51 | 50 | 999.1 |
| 20260503202003 | 20 | 306 | 16.1 | 32.2 | 0.00 | 2.84 | 0.51 | 50 | 1000.1 |
| 20260503201503 | 20 | 313 | 19.3 | 32.2 | 0.00 | 2.84 | 0.51 | 50 | 1000.1 |
| 20260503200503 | 20 | 297 | 8.0 | 20.9 | 0.00 | 2.84 | 0.51 | 50 | 999.1 |
| 20260503200004 | 20 | 298 | 12.9 | 19.3 | 0.00 | 2.84 | 0.51 | 50 | 999.1 |
| 20260503195504 | 20 | 307 | 9.7 | 16.1 | 0.00 | 2.84 | 0.51 | 50 | 999.1 |
| 20260503195005 | 20 | 298 | 11.3 | 16.1 | 0.00 | 2.84 | 0.51 | 50 | 999.1 |
| 20260503194503 | 20 | 284 | 11.3 | 14.5 | 0.00 | 2.84 | 0.51 | 50 | 999.1 |
| 20260503194003 | 20 | 287 | 4.8 | 17.7 | 0.00 | 2.84 | 0.51 | 50 | 999.1 |
| 20260503193503 | 19 | 298 | 4.8 | 17.7 | 0.00 | 2.84 | 0.51 | 50 | 998.1 |
| 20260503192503 | 19 | 173 | 1.6 | 4.8 | 0.00 | 2.84 | 0.51 | 50 | 998.1 |
| 20260503192003 | 19 | 156 | 0.0 | 8.0 | 0.00 | 2.84 | 0.51 | 50 | 998.1 |
| 20260503191503 | 19 | 165 | 4.8 | 8.0 | 0.00 | 2.84 | 0.51 | 50 | 998.1 |
| 20260503191003 | 19 | 164 | 4.8 | 11.3 | 0.00 | 2.84 | 0.51 | 50 | 998.1 |
| 20260503190504 | 19 | 163 | 8.0 | 11.3 | 0.00 | 2.84 | 0.51 | 50 | 998.1 |
| 20260503190004 | 19 | 166 | 3.2 | 11.3 | 0.00 | 2.84 | 0.51 | 50 | 998.1 |
| 20260503185503 | 20 | 165 | 9.7 | 11.3 | 0.00 | 2.84 | 0.51 | 50 | 998.1 |
| 20260503185004 | 20 | 74 | 0.0 | 3.2 | 0.00 | 2.84 | 0.51 | 50 | 998.1 |
| 20260503184504 | 20 | 102 | 0.0 | 4.8 | 0.00 | 2.84 | 0.51 | 50 | 998.1 |
| 20260503183505 | 20 | 159 | 0.0 | 9.7 | 0.00 | 2.84 | 0.51 | 50 | 998.1 |
| 20260503183005 | 20 | 172 | 3.2 | 17.7 | 0.00 | 2.84 | 0.51 | 50 | 998.1 |
| 20260503182504 | 20 | 182 | 9.7 | 32.2 | 0.00 | 2.84 | 0.51 | 50 | 998.1 |
| 20260503182006 | 20 | 179 | 14.5 | 32.2 | 0.00 | 2.84 | 0.51 | 50 | 998.1 |
| 20260503181505 | 20 | 177 | 20.9 | 41.8 | 0.00 | 2.84 | 0.51 | 50 | 998.1 |
| 20260503181004 | 20 | 183 | 20.9 | 41.8 | 0.00 | 2.84 | 0.51 | 50 | 998.1 |
| 20260503180504 | 21 | 193 | 25.7 | 54.7 | 0.10 | 2.84 | 0.51 | 50 | 998.1 |
| 20260503180004 | 21 | 198 | 32.2 | 62.8 | 0.10 | 2.84 | 0.51 | 50 | 998.1 |
| 20260503175503 | 21 | 195 | 37.0 | 62.8 | 0.10 | 2.84 | 0.51 | 50 | 998.1 |
| 20260503175003 | 21 | 191 | 38.6 | 66.0 | 0.10 | 2.84 | 0.51 | 50 | 997.1 |
| 20260503174504 | 21 | 194 | 43.5 | 66.0 | 0.10 | 2.84 | 0.51 | 50 | 997.1 |
| 20260503174003 | 21 | 196 | 43.5 | 62.8 | 0.10 | 2.84 | 0.51 | 50 | 997.1 |
| 20260503173503 | 21 | 194 | 38.6 | 62.8 | 0.10 | 2.84 | 0.51 | 50 | 998.1 |
| 20260503173004 | 21 | 188 | 35.4 | 45.1 | 0.10 | 2.84 | 0.51 | 50 | 998.1 |
| 20260503172504 | 21 | 183 | 40.2 | 45.1 | 0.20 | 2.84 | 0.51 | 50 | 998.1 |
| 20260503172004 | 20 | 184 | 30.6 | 45.1 | 0.20 | 2.84 | 0.51 | 50 | 998.1 |
| 20260503171504 | 20 | 183 | 20.9 | 45.1 | 0.20 | 2.84 | 0.51 | 50 | 998.1 |
| 20260503171004 | 20 | 184 | 25.7 | 38.6 | 0.20 | 2.84 | 0.51 | 50 | 998.1 |
| 20260503170504 | 20 | 184 | 20.9 | 24.1 | 0.10 | 2.74 | 0.41 | 50 | 999.1 |
| 20260503151004 | 19 | 161 | 1.6 | 16.1 | 0.30 | 2.41 | 0.08 | 50 | 1002.1 |